User: anonymous   Login
Location: Acheville
(50.3840°N, 2.8827°E)
Time: 11:51:09
(UTC+00:00)
Language:

Cosmos 407 Rocket - Orbit

View from above orbital plane
View from above orbital plane
View from above satellite
View from above satellite

Ground track
Ground track

The orbit data is extracted from the following two-line orbital elements,

1 05175U 71035B   22019.69578592  .00000043  00000-0  22859-4 0  9996
2 05175  74.0493   2.1346 0029476 157.8182 202.4255 14.38072332655798
Epoch (UTC): 19 January 2022 16:41:55
Eccentricity: 0.0029476
inclination: 74.0493°
perigee height: 744 km
apogee height: 786 km
right ascension of ascending node: 2.1346°
argument of perigee: 157.8182°
revolutions per day: 14.38072332
mean anomaly at epoch: 202.4255°
orbit number at epoch: 65579

The dashed part of the orbit path shows where the satellite is in the earth's shadow,  

DLR